Tetuan, Morocco

7:12 PM WET on March 25, 2017 (GMT +0000)
Sania Ramel

Weather History for GMTN - October, 2013

Change the Weather History Date:

Friday, October 4, 2013

  Actual Average Record
Temperature  
Mean Temperature 76 °F -  
Max Temperature 85 °F 71 °F 85 °F (2013)
Min Temperature 68 °F 60 °F 59 °F (2000)
Cooling Degree Days 12    
Growing Degree Days 26 (Base 50)    
Moisture  
Dew Point 63 °F    
Average Humidity 63    
Maximum Humidity 88    
Minimum Humidity 37    
Precipitation  
Precipitation 0.00 in - - ()
Sea Level Pressure  
Sea Level Pressure 30.02 in    
Wind  
Wind Speed 6 mph ()    
Max Wind Speed 12 mph    
Max Gust Speed -    
Visibility 5.0 miles    
Events      
Averages and records for this station are not official NWS values.
T = Trace of Precipitation, MM = Missing Value Source: Averaged Metar Reports

Daily Weather History Graph

Daily Weather History Graph

Search for Another Location

Airport or City:

Trip Planner

Search our weather history database for the weather conditions in past years. The results will help you decide how hot, cold, wet, or windy it might be!

Date:

Astronomy

Oct. 04, 2013 Rise Set
Actual Time 7:18 AM WEST 7:00 PM WEST
Civil Twilight 6:53 AM WEST 7:26 PM WEST
Nautical Twilight 6:23 AM WEST 7:55 PM WEST
Astronomical Twilight 5:53 AM WEST 8:25 PM WEST
Moon 6:39 AM WEST (10/4) 6:35 PM WEST (10/4)
Length of Visible Light 12h 33m
Length of Day
11h 42m
Waning Crescent, 0% of the Moon is Illuminated
Oct 4
Waning Crescent
Oct 5
New
Oct 12
First Quarter
Oct 19
Full
Oct 27
Last Quarter

Hourly Weather History & Observations

Time (WEST) Temp. Heat Index Dew Point Humidity Pressure Visibility Wind Dir Wind Speed Gust Speed Precip Events Conditions
12:00 AM 75.2 °F - 66.2 °F 73% 29.95 in - South 3.5 mph - N/A   Unknown
1:00 AM 74 °F - 66 °F 70% 29.95 in 2 mi South 4.6 mph - -  
1:00 AM 73.4 °F - 66.2 °F 78% 29.95 in - South 4.6 mph - N/A   Unknown
2:00 AM 73.4 °F - 66.2 °F 78% 29.95 in - SW 2.3 mph - N/A   Unknown
3:00 AM 71.6 °F - 66.2 °F 83% 29.95 in 2.8 mi Variable 1.2 mph - N/A   Unknown
4:00 AM 69.8 °F - 64.4 °F 83% 29.95 in - SSW 4.6 mph - N/A   Unknown
6:00 AM 68.0 °F - 64.4 °F 88% 29.95 in - WSW 2.3 mph - N/A   Unknown
7:00 AM 71 °F - 67 °F 82% 29.97 in 3 mi WSW 6.9 mph - -   Mostly Cloudy
8:00 AM 69.8 °F - 66.2 °F 88% 29.98 in 4.3 mi West 4.6 mph - N/A   Unknown
9:00 AM 73.4 °F - 66.2 °F 78% 30.01 in 5.0 mi West 8.1 mph - N/A   Scattered Clouds
10:00 AM 76 °F - 67 °F 66% 30.05 in 5 mi SW 8.1 mph - -   Partly Cloudy
11:00 AM 75.2 °F - 66.2 °F 73% 30.04 in 5.0 mi SW 8.1 mph - N/A   Scattered Clouds
12:00 PM 82.4 °F 84.6 °F 66.2 °F 58% 30.04 in 5.0 mi WSW 11.5 mph - N/A   Mostly Cloudy
1:00 PM 82 °F - 65 °F 47% 30.05 in 5 mi NW 8.1 mph - -   Mostly Cloudy
1:00 PM 82.4 °F 83.9 °F 64.4 °F 54% 30.04 in 5.0 mi NW 8.1 mph - N/A   Mostly Cloudy
2:00 PM 82.4 °F 83.9 °F 64.4 °F 54% 30.01 in 5.0 mi NW 10.4 mph - N/A   Mostly Cloudy
3:00 PM 84.2 °F 85.0 °F 62.6 °F 48% 30.01 in 6.2 mi WNW 11.5 mph - N/A   Scattered Clouds
4:00 PM 83 °F - 61 °F 37% 30.02 in 6 mi WNW 10.4 mph - -   Partly Cloudy
4:00 PM 82.4 °F 82.9 °F 60.8 °F 48% 30.01 in 6.2 mi WNW 10.4 mph - N/A   Scattered Clouds
5:00 PM 84.2 °F 84.4 °F 60.8 °F 45% 30.01 in 6.2 mi WNW 9.2 mph - N/A   Scattered Clouds
6:00 PM 80.6 °F 81.1 °F 59.0 °F 48% 30.04 in 6.2 mi NW 11.5 mph - N/A   Scattered Clouds
7:00 PM 77 °F - 57 °F 40% 30.06 in 6 mi WNW 9.2 mph - -   Scattered Clouds
7:00 PM 77.0 °F - 57.2 °F 50% 30.04 in 6.2 mi WNW 9.2 mph - N/A   Partly Cloudy
8:00 PM 73.4 °F - 59.0 °F 61% 30.06 in 6.2 mi West 6.9 mph - N/A   Partly Cloudy
9:00 PM 73.4 °F - 59.0 °F 61% 30.06 in 6.2 mi NW 4.6 mph - N/A   Partly Cloudy
10:00 PM 72 °F - 56 °F 47% 30.11 in - NNW 6.9 mph - -  
10:00 PM 73.4 °F - 55.4 °F 53% 30.09 in - NNW 6.9 mph - N/A   Unknown
11:00 PM 69.8 °F - 60.8 °F 73% 30.09 in 2.2 mi WSW 11.5 mph - N/A   Unknown